FW7023 Weather Reports


Display with metric or nautical units.
time (UTC)temp
F
wind
direction
speed
MPH
gust
MPH
rain 1hr
in
rain 24hr
in
rain mn
in
humidity
%
barometer
mb
20260904175903 94 213 4.0 5.0 0.00 0.00 0.00 49 1013.3
20260904175402 94 210 4.0 6.0 0.00 0.00 0.00 50 1013.3
20260904174856 94 157 2.0 5.0 0.00 0.00 0.00 51 1013.4
20260904174353 93 172 2.0 2.0 0.00 0.00 0.00 52 1013.4
20260904173849 95 210 5.0 6.0 0.00 0.00 0.00 51 1013.3
20260904173344 94 232 1.0 2.0 0.00 0.00 0.00 51 1013.7
20260904172839 96 216 9.0 9.0 0.00 0.00 0.00 47 1013.5
20260904172339 94 202 1.0 2.0 0.00 0.00 0.00 50 1013.6
20260904171839 94 199 1.0 1.0 0.00 0.00 0.00 50 1013.4
20260904171334 95 213 4.0 5.0 0.00 0.00 0.00 49 1013.7
20260904170831 94 223 2.0 3.0 0.00 0.00 0.00 51 1013.5
20260904170325 93 186 4.0 6.0 0.00 0.00 0.00 51 1013.7
20260904165821 93 228 3.0 6.0 0.00 0.00 0.00 52 1014.0
20260904165320 92 55 3.0 3.0 0.00 0.00 0.00 53 1013.8
20260904164815 93 128 2.0 5.0 0.00 0.00 0.00 53 1014.1
20260904164314 94 137 3.0 6.0 0.00 0.00 0.00 52 1013.9
20260904163811 94 181 0.0 1.0 0.00 0.00 0.00 53 1014.0
20260904163306 94 174 1.0 2.0 0.00 0.00 0.00 53 1013.9
20260904162805 93 154 0.0 1.0 0.00 0.00 0.00 54 1013.9
20260904162300 92 211 1.0 2.0 0.00 0.00 0.00 55 1014.0
20260904161755 91 221 6.0 8.0 0.00 0.00 0.00 56 1014.0
20260904161250 90 220 4.0 7.0 0.00 0.00 0.00 57 1014.2
20260904160746 91 170 5.0 7.0 0.00 0.00 0.00 56 1014.1
20260904160241 91 169 1.0 1.0 0.00 0.00 0.00 58 1014.1
20260904155741 90 261 3.0 6.0 0.00 0.00 0.00 57 1014.0
20260904155241 90 227 7.0 10.0 0.00 0.00 0.00 57 1014.0
20260904154739 90 225 1.0 2.0 0.00 0.00 0.00 59 1014.1
20260904154234 90 171 3.0 5.0 0.00 0.00 0.00 58 1014.2
20260904153730 90 190 3.0 5.0 0.00 0.00 0.00 58 1014.2
20260904153225 90 212 4.0 6.0 0.00 0.00 0.00 59 1013.9
20260904152721 91 211 1.0 1.0 0.00 0.00 0.00 58 1014.2
20260904152216 91 351 3.0 5.0 0.00 0.00 0.00 57 1014.4
20260904151711 90 193 1.0 2.0 0.00 0.00 0.00 59 1014.1
20260904151210 89 212 3.0 3.0 0.00 0.00 0.00 58 1014.0
20260904150706 88 204 0.0 1.0 0.00 0.00 0.00 61 1014.1
20260904150201 88 189 4.0 6.0 0.00 0.00 0.00 60 1013.9
20260904145659 87 148 0.0 0.0 0.00 0.00 0.00 62 1014.3
20260904145154 87 163 2.0 3.0 0.00 0.00 0.00 62 1014.4
20260904144650 88 178 3.0 3.0 0.00 0.00 0.00 61 1014.0
20260904144146 87 184 3.0 3.0 0.00 0.00 0.00 61 1014.1
20260904143641 87 164 1.0 1.0 0.00 0.00 0.00 62 1013.9
20260904143138 86 142 0.0 0.0 0.00 0.00 0.00 63 1014.0
20260904142634 86 218 3.0 3.0 0.00 0.00 0.00 63 1014.3
20260904142129 86 175 1.0 2.0 0.00 0.00 0.00 65 1014.1
20260904141624 85 163 0.0 1.0 0.00 0.00 0.00 65 1014.2
20260904141120 84 146 1.0 1.0 0.00 0.00 0.00 67 1014.0
20260904140615 84 152 0.0 0.0 0.00 0.00 0.00 67 1014.1
20260904140109 83 169 1.0 1.0 0.00 0.00 0.00 69 1014.1
20260904135608 82 153 0.0 0.0 0.00 0.00 0.00 71 1014.0
20260904135105 82 182 1.0 1.0 0.00 0.00 0.00 71 1014.0
20260904134601 81 159 0.0 0.0 0.00 0.00 0.00 72 1014.0
20260904134100 80 225 2.0 3.0 0.00 0.00 0.00 75 1014.1
20260904133555 79 200 3.0 3.0 0.00 0.00 0.00 77 1014.1
20260904133051 77 165 0.0 0.0 0.00 0.00 0.00 81 1013.9
20260904132550 76 131 0.0 0.0 0.00 0.00 0.00 85 1014.0
20260904132045 75 156 0.0 0.0 0.00 0.00 0.00 86 1014.0
20260904131545 75 156 0.0 0.0 0.00 0.00 0.00 87 1014.0
20260904131040 75 158 0.0 0.0 0.00 0.00 0.00 87 1014.1
20260904130539 74 155 0.0 0.0 0.00 0.00 0.00 88 1014.1
20260904130035 74 152 0.0 0.0 0.00 0.00 0.00 89 1013.9
20260904125532 73 153 0.0 0.0 0.00 0.00 0.00 90 1013.7
20260904125026 73 155 0.0 0.0 0.00 0.00 0.00 91 1013.7
20260904124522 72 155 0.0 0.0 0.00 0.00 0.00 91 1013.8
20260904124017 72 155 0.0 0.0 0.00 0.00 0.00 91 1013.5
20260904123516 72 155 0.0 0.0 0.00 0.00 0.00 91 1013.4
20260904123013 72 154 0.0 0.0 0.00 0.00 0.00 91 1013.5
20260904122507 72 153 0.0 0.0 0.00 0.00 0.00 91 1013.5
20260904122001 72 150 0.0 0.0 0.00 0.00 0.00 91 1013.3
20260904121458 72 155 0.0 0.0 0.00 0.00 0.00 91 1013.2
20260904120954 72 152 0.0 0.0 0.00 0.00 0.00 92 1013.3
20260904120449 71 152 0.0 0.0 0.00 0.00 0.00 92 1013.2
20260904115944 71 155 0.0 0.0 0.00 0.00 0.00 92 1013.1
20260904115440 72 155 0.0 0.0 0.00 0.00 0.00 92 1013.4
20260904114934 72 155 0.0 0.0 0.00 0.00 0.00 92 1013.2
20260904114434 72 154 0.0 0.0 0.00 0.00 0.00 92 1012.9
20260904113930 71 155 0.0 0.0 0.00 0.00 0.00 92 1012.8
20260904113428 71 159 0.0 0.0 0.00 0.00 0.00 92 1013.0
20260904112928 72 159 0.0 0.0 0.00 0.00 0.00 91 1013.2
20260904112424 72 159 0.0 0.0 0.00 0.00 0.00 91 1012.9
20260904111920 72 155 0.0 0.0 0.00 0.00 0.00 91 1013.1
20260904111414 72 155 0.0 0.0 0.00 0.00 0.00 91 1013.0
20260904110910 72 154 0.0 0.0 0.00 0.00 0.00 92 1013.0
20260904110409 72 154 0.0 0.0 0.00 0.00 0.00 91 1012.8
20260904105904 72 154 0.0 0.0 0.00 0.00 0.00 91 1012.6
20260904105359 72 154 0.0 0.0 0.00 0.00 0.00 91 1012.8
20260904104855 72 154 0.0 0.0 0.00 0.00 0.00 91 1012.7
20260904104349 72 154 0.0 0.0 0.00 0.00 0.00 91 1012.7
20260904103847 72 154 0.0 0.0 0.00 0.00 0.00 91 1012.8
20260904103346 72 153 0.0 0.0 0.00 0.00 0.00 91 1012.6
20260904102843 72 153 0.0 0.0 0.00 0.00 0.00 91 1012.7
20260904102338 72 157 0.0 0.0 0.00 0.00 0.00 91 1012.7
20260904101833 72 162 0.0 0.0 0.00 0.00 0.00 91 1012.5
20260904101330 72 153 0.0 0.0 0.00 0.00 0.00 91 1012.6
20260904100825 73 155 0.0 0.0 0.00 0.00 0.00 90 1012.5
20260904100321 73 152 0.0 0.0 0.00 0.00 0.00 91 1012.6
20260904095816 73 153 0.0 0.0 0.00 0.00 0.00 90 1012.5
20260904095316 73 153 0.0 0.0 0.00 0.00 0.00 90 1012.2
20260904094811 73 150 0.0 0.0 0.00 0.00 0.00 90 1012.6
20260904094306 73 155 0.0 0.0 0.00 0.00 0.00 89 1012.2
20260904093803 73 155 0.0 0.0 0.00 0.00 0.00 89 1012.4
20260904093302 73 155 0.0 0.0 0.00 0.00 0.00 90 1012.2
20260904092758 73 157 0.0 0.0 0.00 0.00 0.00 90 1011.9
20260904092254 73 155 0.0 0.0 0.00 0.00 0.00 89 1012.1
20260904091751 73 155 0.0 0.0 0.00 0.00 0.00 89 1012.0
20260904091245 74 156 0.0 0.0 0.00 0.00 0.00 89 1012.0
20260904090740 74 155 0.0 0.0 0.00 0.00 0.00 89 1012.1
20260904090237 73 156 0.0 0.0 0.00 0.00 0.00 89 1012.0
20260904085737 74 156 0.0 0.0 0.00 0.00 0.00 89 1012.1
20260904085231 74 158 0.0 0.0 0.00 0.00 0.00 89 1011.8
20260904084726 74 158 0.0 0.0 0.00 0.00 0.00 88 1011.9
20260904084222 74 159 0.0 0.0 0.00 0.00 0.00 88 1011.9
20260904083718 74 157 0.0 0.0 0.00 0.00 0.00 88 1011.9
20260904083214 74 157 0.0 0.0 0.00 0.00 0.00 88 1011.8
20260904082709 74 157 0.0 0.0 0.00 0.00 0.00 87 1011.9
20260904082204 74 157 0.0 0.0 0.00 0.00 0.00 87 1011.9
20260904081659 74 157 0.0 0.0 0.00 0.00 0.00 86 1011.9
20260904081154 74 153 0.0 0.0 0.00 0.00 0.00 87 1011.8
20260904080650 74 156 0.0 0.0 0.00 0.00 0.00 86 1011.7
20260904080146 74 156 0.0 0.0 0.00 0.00 0.00 86 1011.8
20260904075642 74 160 0.0 0.0 0.00 0.00 0.00 86 1011.7
20260904075137 74 160 0.0 0.0 0.00 0.00 0.00 86 1011.7
20260904074636 75 163 0.0 0.0 0.00 0.00 0.00 86 1011.7
20260904074131 75 162 0.0 0.0 0.00 0.00 0.00 86 1011.7
20260904073626 75 160 0.0 0.0 0.00 0.00 0.00 87 1011.7
20260904073122 75 160 0.0 0.0 0.00 0.00 0.00 86 1011.9
20260904072618 75 160 0.0 0.0 0.00 0.00 0.00 87 1011.7
20260904072113 75 159 0.0 0.0 0.00 0.00 0.00 87 1011.8
20260904071608 75 159 0.0 0.0 0.00 0.00 0.00 87 1011.6
20260904071103 75 159 0.0 0.0 0.00 0.00 0.00 86 1011.6
20260904070602 75 159 0.0 0.0 0.00 0.00 0.00 86 1011.7
20260904070057 75 159 0.0 0.0 0.00 0.00 0.00 86 1011.5
20260904065552 75 163 0.0 0.0 0.00 0.00 0.00 85 1011.8
20260904065048 76 158 0.0 0.0 0.00 0.00 0.00 85 1011.7
20260904064544 76 156 0.0 0.0 0.00 0.00 0.00 85 1011.7
20260904064038 76 156 0.0 0.0 0.00 0.00 0.00 85 1011.7
20260904063535 76 156 0.0 0.0 0.00 0.00 0.00 85 1011.6
20260904063029 76 161 0.0 0.0 0.00 0.00 0.00 85 1011.7
20260904062526 76 161 0.0 0.0 0.00 0.00 0.00 85 1011.6
20260904062021 76 161 0.0 0.0 0.00 0.00 0.00 85 1011.7
20260904061517 76 161 0.0 0.0 0.00 0.00 0.00 85 1011.6
20260904061013 76 161 0.0 0.0 0.00 0.00 0.00 85 1011.7
20260904060509 76 161 0.0 0.0 0.00 0.00 0.00 84 1011.6
20260904060004 76 161 0.0 0.0 0.00 0.00 0.00 84 1011.6
20260904055459 76 157 0.0 0.0 0.00 0.00 0.00 83 1011.7
20260904054949 77 156 0.0 0.0 0.00 0.00 0.00 83 1011.7
20260904054445 77 151 0.0 0.0 0.00 0.00 0.00 83 1011.5
20260904053940 77 160 0.0 0.0 0.00 0.00 0.00 82 1011.7
20260904053440 77 162 0.0 0.0 0.00 0.00 0.00 82 1011.5
20260904052936 77 151 0.0 0.0 0.00 0.00 0.00 82 1011.4
20260904052432 77 152 0.0 0.0 0.00 0.00 0.00 82 1011.3
20260904051928 77 153 0.0 0.0 0.00 0.00 0.00 81 1011.5
20260904051424 78 156 0.0 0.0 0.00 0.00 0.00 80 1011.4
20260904050923 78 155 0.0 0.0 0.00 0.00 0.00 81 1011.1
20260904050420 78 158 0.0 0.0 0.00 0.00 0.00 80 1011.3
20260904045919 78 162 0.0 0.0 0.00 0.00 0.00 80 1011.2
20260904045415 78 166 0.0 0.0 0.00 0.00 0.00 79 1011.1
20260904044915 78 167 0.0 0.0 0.00 0.00 0.00 79 1011.0
20260904044412 78 167 0.0 0.0 0.00 0.00 0.00 78 1011.1
20260904043907 78 167 0.0 0.0 0.00 0.00 0.00 78 1011.2
20260904043403 78 167 0.0 0.0 0.00 0.00 0.00 78 1011.4
20260904042858 78 167 0.0 0.0 0.00 0.00 0.00 78 1011.3
20260904042355 78 167 0.0 0.0 0.00 0.00 0.00 78 1011.3
20260904041849 78 163 0.0 0.0 0.00 0.00 0.00 77 1011.3
20260904041346 79 166 0.0 0.0 0.00 0.00 0.00 77 1011.1
20260904040842 79 167 0.0 0.0 0.00 0.00 0.00 76 1011.4
20260904040336 79 165 0.0 0.0 0.00 0.00 0.00 75 1011.5
20260904035833 79 165 0.0 0.0 0.00 0.00 0.00 75 1011.2
20260904035329 80 165 0.0 0.0 0.00 0.00 0.00 75 1011.3
20260904034827 80 165 0.0 0.0 0.00 0.00 0.00 74 1011.6
20260904034322 80 165 0.0 0.0 0.00 0.00 0.00 74 1011.3
20260904033818 80 165 0.0 0.0 0.00 0.00 0.00 73 1011.2
20260904033315 80 157 0.0 0.0 0.00 0.00 0.00 73 1011.4
20260904032810 81 157 0.0 0.0 0.00 0.00 0.00 72 1011.5
20260904032306 81 156 0.0 0.0 0.00 0.00 0.00 72 1011.3
20260904031759 81 156 0.0 0.0 0.00 0.00 0.00 71 1011.3
20260904031254 82 156 0.0 0.0 0.00 0.00 0.00 71 1011.4
20260904030750 82 155 0.0 0.0 0.00 0.00 0.00 70 1011.2
20260904030245 81 156 0.0 0.0 0.00 0.00 0.00 70 1011.2
20260904025741 81 161 0.0 0.0 0.00 0.00 0.00 69 1011.1
20260904025230 82 164 0.0 0.0 0.00 0.00 0.00 69 1011.1
20260904024726 82 164 0.0 0.0 0.00 0.00 0.00 68 1011.3
20260904024222 82 166 0.0 0.0 0.00 0.00 0.00 68 1011.1
20260904023718 82 163 0.0 0.0 0.00 0.00 0.00 68 1011.0
20260904023213 82 166 0.0 0.0 0.00 0.00 0.00 67 1011.1
20260904022707 83 166 0.0 0.0 0.00 0.00 0.00 67 1010.8
20260904022204 83 166 0.0 0.0 0.00 0.00 0.00 67 1010.9
20260904021700 83 167 0.0 0.0 0.00 0.00 0.00 66 1011.0
20260904021200 83 167 0.0 0.0 0.00 0.00 0.00 65 1010.8
20260904020656 84 166 0.0 0.0 0.00 0.00 0.00 64 1010.9
20260904020150 84 166 0.0 0.0 0.00 0.00 0.00 64 1010.8
20260904015649 84 162 0.0 0.0 0.00 0.00 0.00 63 1010.9
20260904015148 84 159 0.0 0.0 0.00 0.00 0.00 62 1010.7
20260904014648 85 163 0.0 0.0 0.00 0.00 0.00 62 1010.6
20260904014143 85 163 0.0 0.0 0.00 0.00 0.00 62 1010.4
20260904013640 85 164 0.0 0.0 0.00 0.00 0.00 62 1010.6
20260904013135 86 162 0.0 0.0 0.00 0.00 0.00 61 1010.2
20260904012631 86 160 0.0 0.0 0.00 0.00 0.00 59 1010.1
20260904012130 86 169 0.0 1.0 0.00 0.00 0.00 59 1009.9
20260904011629 87 153 0.0 0.0 0.00 0.00 0.00 59 1010.0
20260904011125 88 170 0.0 1.0 0.00 0.00 0.00 58 1009.8
20260904010621 89 164 0.0 0.0 0.00 0.00 0.00 56 1010.0
20260904010118 90 162 0.0 0.0 0.00 0.00 0.00 54 1009.8
20260904005612 90 150 0.0 0.0 0.00 0.00 0.00 52 1009.8
20260904005107 91 180 0.0 0.0 0.00 0.00 0.00 51 1009.8
20260904004602 92 164 0.0 0.0 0.00 0.00 0.00 51 1009.7
20260904004057 92 148 1.0 1.0 0.00 0.00 0.00 47 1009.8
20260904003553 93 161 0.0 0.0 0.00 0.00 0.00 47 1009.7
20260904003049 93 164 0.0 0.0 0.00 0.00 0.00 46 1009.8
20260904002544 94 159 0.0 1.0 0.00 0.00 0.00 45 1009.8
20260904002038 94 147 0.0 0.0 0.00 0.00 0.00 45 1009.9
20260904001535 94 196 0.0 0.0 0.00 0.00 0.00 45 1009.8
20260904001033 95 135 0.0 0.0 0.00 0.00 0.00 45 1009.9
20260904000532 95 215 1.0 2.0 0.00 0.00 0.00 44 1009.9
20260904000029 95 177 0.0 1.0 0.00 0.00 0.00 44 1009.9
20260903235524 95 200 2.0 3.0 0.00 0.00 0.00 43 1009.8
20260903235020 95 233 3.0 5.0 0.00 0.00 0.00 43 1010.1
20260903234515 96 170 1.0 1.0 0.00 0.00 0.00 43 1009.7
20260903234011 96 203 3.0 5.0 0.00 0.00 0.00 43 1009.8
20260903233506 96 136 2.0 2.0 0.00 0.00 0.00 43 1009.9
20260903233001 96 212 2.0 2.0 0.00 0.00 0.00 43 1009.8
20260903232457 96 159 1.0 1.0 0.00 0.00 0.00 42 1009.7
20260903231956 96 187 3.0 3.0 0.00 0.00 0.00 42 1009.7
20260903231451 96 145 2.0 5.0 0.00 0.00 0.00 42 1009.7
20260903230945 97 206 3.0 5.0 0.00 0.00 0.00 41 1009.7
20260903230442 97 181 3.0 5.0 0.00 0.00 0.00 42 1009.6
20260903225938 97 178 3.0 5.0 0.00 0.00 0.00 41 1009.8
20260903225433 97 219 5.0 6.0 0.00 0.00 0.00 41 1010.1
20260903224929 97 220 3.0 3.0 0.00 0.00 0.00 40 1010.0
20260903224425 97 132 0.0 0.0 0.00 0.00 0.00 41 1009.8
20260903223921 97 197 3.0 3.0 0.00 0.00 0.00 40 1009.9
20260903223420 97 195 5.0 6.0 0.00 0.00 0.00 41 1009.8
20260903222919 97 218 5.0 6.0 0.00 0.00 0.00 40 1009.9
20260903222415 98 212 2.0 3.0 0.00 0.00 0.00 40 1009.9
20260903221909 98 198 1.0 1.0 0.00 0.00 0.00 40 1010.0
20260903221408 98 250 3.0 5.0 0.00 0.00 0.00 39 1010.1
20260903220906 98 211 5.0 7.0 0.00 0.00 0.00 40 1010.0
20260903220400 98 211 3.0 6.0 0.00 0.00 0.00 39 1010.0
20260903215857 98 148 2.0 3.0 0.00 0.00 0.00 40 1010.0
20260903215355 98 212 4.0 5.0 0.00 0.00 0.00 39 1010.0
20260903214853 99 198 3.0 3.0 0.00 0.00 0.00 39 1009.9
20260903214349 98 166 4.0 5.0 0.00 0.00 0.00 40 1010.2
20260903213848 99 220 7.0 8.0 0.00 0.00 0.00 38 1010.5
20260903213343 99 184 2.0 2.0 0.00 0.00 0.00 38 1010.2
20260903212839 99 208 3.0 3.0 0.00 0.00 0.00 40 1010.5
20260903212336 98 239 4.0 5.0 0.00 0.00 0.00 41 1010.2
20260903211835 99 208 8.0 9.0 0.00 0.00 0.00 39 1010.5
20260903211331 98 139 2.0 3.0 0.00 0.00 0.00 41 1010.5
20260903210827 98 213 3.0 3.0 0.00 0.00 0.00 40 1010.4
20260903210322 99 208 5.0 5.0 0.00 0.00 0.00 40 1010.7
20260903205821 99 192 3.0 6.0 0.00 0.00 0.00 40 1010.7
20260903205316 99 210 3.0 5.0 0.00 0.00 0.00 40 1010.7
20260903204811 98 172 2.0 2.0 0.00 0.00 0.00 40 1010.8
20260903204307 97 216 3.0 3.0 0.00 0.00 0.00 40 1010.6
20260903203803 98 229 8.0 10.0 0.00 0.00 0.00 40 1010.6
20260903203258 100 183 5.0 7.0 0.00 0.00 0.00 39 1010.7
20260903202757 99 200 2.0 3.0 0.00 0.00 0.00 40 1010.8
20260903202254 98 225 3.0 3.0 0.00 0.00 0.00 41 1010.9
20260903201752 96 196 1.0 2.0 0.00 0.00 0.00 43 1010.8
20260903201248 97 223 6.0 8.0 0.00 0.00 0.00 41 1011.0
20260903200746 97 169 5.0 8.0 0.00 0.00 0.00 41 1010.7
20260903200242 97 215 4.0 7.0 0.00 0.00 0.00 41 1011.0
20260903195737 97 149 4.0 5.0 0.00 0.00 0.00 41 1011.1
20260903195234 97 220 10.0 14.0 0.00 0.00 0.00 40 1011.0
20260903194733 97 196 1.0 1.0 0.00 0.00 0.00 42 1011.1
20260903194229 98 208 9.0 11.0 0.00 0.00 0.00 41 1011.3
20260903193725 98 303 1.0 2.0 0.00 0.00 0.00 41 1011.2
20260903193220 97 207 1.0 2.0 0.00 0.00 0.00 42 1011.0
20260903192716 97 191 4.0 6.0 0.00 0.00 0.00 42 1011.3
20260903192211 96 156 3.0 3.0 0.00 0.00 0.00 42 1011.3
20260903191708 96 214 4.0 5.0 0.00 0.00 0.00 43 1011.2
20260903191202 96 209 4.0 6.0 0.00 0.00 0.00 43 1011.4
20260903190656 96 222 8.0 9.0 0.00 0.00 0.00 43 1011.5
20260903190151 96 207 2.0 5.0 0.00 0.00 0.00 44 1011.5
20260903185646 97 228 4.0 6.0 0.00 0.00 0.00 43 1011.5
20260903185141 97 219 3.0 3.0 0.00 0.00 0.00 42 1011.7
20260903184638 96 242 1.0 2.0 0.00 0.00 0.00 43 1011.9
20260903184133 98 196 6.0 8.0 0.00 0.00 0.00 42 1011.7
20260903183632 97 214 6.0 9.0 0.00 0.00 0.00 43 1011.8
20260903183127 96 161 2.0 3.0 0.00 0.00 0.00 44 1011.7
20260903182626 95 199 4.0 6.0 0.00 0.00 0.00 46 1011.9
20260903182122 95 215 4.0 5.0 0.00 0.00 0.00 46 1012.0
20260903181620 95 196 2.0 3.0 0.00 0.00 0.00 46 1012.0
20260903181115 95 198 3.0 5.0 0.00 0.00 0.00 46 1012.3
20260903180610 96 206 4.0 6.0 0.00 0.00 0.00 45 1012.1
20260903180104 94 198 1.0 2.0 0.00 0.00 0.00 48 1012.3